W0WC Weather Reports


time (UTC)temp
F
wind
direction
speed
knots
gust
knots
rain 1hr
in
rain 24hr
in
rain mn
in
humidity
%
barometer
mb
20260903213901 100 116 5.2 7.0 0.00 0.00 0.00 33 1012.5
20260903213356 101 201 6.1 7.8 0.00 0.00 0.00 34 1012.6
20260903212851 100 336 1.7 2.6 0.00 0.00 0.00 34 1012.7
20260903212348 100 74 1.7 2.6 0.00 0.00 0.00 34 1012.8
20260903211847 101 52 2.6 2.6 0.00 0.00 0.00 34 1012.8
20260903211343 100 227 6.1 7.8 0.00 0.00 0.00 33 1012.8
20260903210839 100 216 2.6 2.6 0.00 0.00 0.00 34 1012.7
20260903210339 100 209 5.2 6.1 0.00 0.00 0.00 34 1012.8
20260903205838 101 216 5.2 7.8 0.00 0.00 0.00 33 1012.8
20260903205338 101 80 1.7 2.6 0.00 0.00 0.00 33 1013.0
20260903204833 101 207 3.5 5.2 0.00 0.00 0.00 34 1012.6
20260903204330 101 141 2.6 3.5 0.00 0.00 0.00 33 1013.1
20260903203825 100 214 2.6 3.5 0.00 0.00 0.00 34 1013.1
20260903203321 100 202 5.2 6.1 0.00 0.00 0.00 33 1013.2
20260903202820 99 234 3.5 5.2 0.00 0.00 0.00 35 1013.1
20260903202316 100 199 7.0 7.8 0.00 0.00 0.00 35 1013.2
20260903201815 101 229 1.7 1.7 0.00 0.00 0.00 33 1013.2
20260903201311 100 107 2.6 2.6 0.00 0.00 0.00 35 1013.2
20260903200809 100 206 4.3 6.1 0.00 0.00 0.00 34 1013.4
20260903200305 99 102 2.6 5.2 0.00 0.00 0.00 36 1013.3
20260903195800 99 176 3.5 5.2 0.00 0.00 0.00 36 1013.3
20260903195256 99 181 4.3 6.1 0.00 0.00 0.00 36 1013.5
20260903194751 99 231 3.5 3.5 0.00 0.00 0.00 36 1013.4
20260903194247 98 106 4.3 6.1 0.00 0.00 0.00 35 1013.5
20260903193743 99 111 4.3 7.8 0.00 0.00 0.00 37 1013.5
20260903193238 99 194 2.6 3.5 0.00 0.00 0.00 36 1013.8
20260903192734 98 209 1.7 2.6 0.00 0.00 0.00 38 1013.8
20260903192229 98 179 7.8 8.7 0.00 0.00 0.00 37 1013.9
20260903191726 99 171 6.1 7.8 0.00 0.00 0.00 37 1013.9
20260903191221 98 228 5.2 6.1 0.00 0.00 0.00 38 1014.0
20260903190715 97 139 5.2 8.7 0.00 0.00 0.00 38 1014.1
20260903190215 97 180 5.2 7.0 0.00 0.00 0.00 38 1014.0
20260903185709 98 111 5.2 7.0 0.00 0.00 0.00 37 1014.4
20260903185204 97 33 0.9 0.9 0.00 0.00 0.00 38 1014.1
20260903184701 98 200 7.8 11.3 0.00 0.00 0.00 37 1014.4
20260903184157 97 174 5.2 7.8 0.00 0.00 0.00 39 1014.1
20260903183656 97 207 7.0 8.7 0.00 0.00 0.00 39 1014.5
20260903183151 96 245 5.2 7.0 0.00 0.00 0.00 40 1014.8
20260903182650 96 189 5.2 7.8 0.00 0.00 0.00 40 1014.7
20260903182146 96 201 6.1 8.7 0.00 0.00 0.00 40 1014.7
20260903181644 96 209 2.6 3.5 0.00 0.00 0.00 41 1014.8
20260903181138 96 172 3.5 5.2 0.00 0.00 0.00 41 1014.7
20260903180634 97 174 3.5 5.2 0.00 0.00 0.00 41 1014.9
20260903180128 96 237 4.3 7.8 0.00 0.00 0.00 41 1014.9
20260903175627 96 115 1.7 3.5 0.00 0.00 0.00 41 1015.0
20260903175126 95 116 4.3 5.2 0.00 0.00 0.00 41 1015.1
20260903174621 95 203 3.5 5.2 0.00 0.00 0.00 42 1015.3
20260903174116 95 224 5.2 8.7 0.00 0.00 0.00 42 1015.4
20260903173611 95 336 3.5 5.2 0.00 0.00 0.00 42 1015.5
20260903173108 95 283 1.7 2.6 0.00 0.00 0.00 42 1015.6
20260903172603 95 196 4.3 7.0 0.00 0.00 0.00 42 1015.6
20260903172058 95 90 1.7 2.6 0.00 0.00 0.00 43 1015.7
20260903171558 96 240 3.5 6.1 0.00 0.00 0.00 42 1015.6
20260903171054 94 68 0.9 1.7 0.00 0.00 0.00 44 1015.8
20260903170552 93 204 2.6 2.6 0.00 0.00 0.00 45 1015.7
20260903170048 94 352 4.3 7.0 0.00 0.00 0.00 45 1015.8
20260903165545 94 202 1.7 3.5 0.00 0.00 0.00 44 1016.0
20260903165040 93 172 5.2 7.0 0.00 0.00 0.00 45 1015.9
20260903164535 92 215 1.7 3.5 0.00 0.00 0.00 46 1015.9
20260903164031 92 120 4.3 5.2 0.00 0.00 0.00 46 1016.2
20260903163526 92 152 4.3 6.1 0.00 0.00 0.00 46 1015.9
20260903163022 92 202 4.3 5.2 0.00 0.00 0.00 46 1016.2
20260903162518 92 189 3.5 6.1 0.00 0.00 0.00 46 1016.1
20260903162013 91 198 6.1 7.8 0.00 0.00 0.00 47 1016.0
20260903161509 91 168 4.3 6.1 0.00 0.00 0.00 47 1016.0
20260903161005 91 162 5.2 6.1 0.00 0.00 0.00 47 1016.0
20260903160503 91 157 6.1 7.8 0.00 0.00 0.00 47 1016.1
20260903160003 91 272 5.2 7.0 0.00 0.00 0.00 48 1016.1
20260903155502 91 185 3.5 6.1 0.00 0.00 0.00 48 1016.2
20260903154958 89 234 3.5 3.5 0.00 0.00 0.00 51 1016.5
20260903154454 89 213 4.3 6.1 0.00 0.00 0.00 50 1016.2
20260903153949 90 189 8.7 8.7 0.00 0.00 0.00 49 1016.3
20260903153445 89 178 6.1 7.8 0.00 0.00 0.00 50 1016.3
20260903152941 89 162 6.1 8.7 0.00 0.00 0.00 50 1016.1
20260903152437 88 350 2.6 2.6 0.00 0.00 0.00 51 1016.3
20260903151933 89 185 5.2 6.1 0.00 0.00 0.00 51 1016.5
20260903151427 88 210 3.5 6.1 0.00 0.00 0.00 52 1016.2
20260903150922 88 210 5.2 6.1 0.00 0.00 0.00 52 1016.3
20260903150417 88 193 4.3 6.1 0.00 0.00 0.00 52 1016.2
20260903145917 88 194 3.5 5.2 0.00 0.00 0.00 52 1016.3
20260903145412 87 34 1.7 2.6 0.00 0.00 0.00 54 1016.4
20260903144912 87 195 6.1 8.7 0.00 0.00 0.00 53 1016.4
20260903144407 87 186 3.5 5.2 0.00 0.00 0.00 54 1016.4
20260903143902 87 147 8.7 11.3 0.00 0.00 0.00 55 1016.6
20260903143359 87 206 4.3 6.1 0.00 0.00 0.00 56 1016.1
20260903142859 86 157 5.2 7.8 0.00 0.00 0.00 57 1016.4
20260903142355 86 208 4.3 5.2 0.00 0.00 0.00 58 1016.5
20260903141851 86 178 4.3 7.0 0.00 0.00 0.00 58 1016.7
20260903141346 85 253 3.5 5.2 0.00 0.00 0.00 58 1016.5
20260903140841 85 142 6.1 7.8 0.00 0.00 0.00 59 1016.5
20260903140336 85 209 5.2 7.0 0.00 0.00 0.00 59 1016.5
20260903135832 84 238 3.5 3.5 0.00 0.00 0.00 60 1016.6
20260903135328 84 162 2.6 2.6 0.00 0.00 0.00 61 1016.6
20260903134826 84 325 3.5 6.1 0.00 0.00 0.00 61 1016.5
20260903134322 84 183 6.1 7.8 0.00 0.00 0.00 61 1016.5
20260903133820 83 198 6.1 7.0 0.00 0.00 0.00 62 1016.8
20260903133316 83 169 2.6 3.5 0.00 0.00 0.00 63 1016.8
20260903132816 82 213 3.5 5.2 0.00 0.00 0.00 64 1016.5
20260903132312 82 77 3.5 5.2 0.00 0.00 0.00 65 1016.6
20260903131806 82 201 2.6 3.5 0.00 0.00 0.00 65 1016.5
20260903131306 82 201 2.6 3.5 0.00 0.00 0.00 65 1016.4
20260903130800 81 60 1.7 2.6 0.00 0.00 0.00 66 1016.4
20260903130255 81 184 2.6 5.2 0.00 0.00 0.00 67 1016.7
20260903125753 81 194 4.3 5.2 0.00 0.00 0.00 67 1016.6
20260903125249 80 150 6.1 7.8 0.00 0.00 0.00 67 1016.7
20260903124748 80 61 3.5 2.6 0.00 0.00 0.00 67 1016.3
20260903124244 80 166 3.5 6.1 0.00 0.00 0.00 67 1016.4
20260903123742 80 62 1.7 1.7 0.00 0.00 0.00 68 1016.4
20260903123242 80 176 4.3 7.0 0.00 0.00 0.00 68 1016.4
20260903122741 80 248 1.7 2.6 0.00 0.00 0.00 68 1016.4
20260903122236 79 62 0.9 1.7 0.00 0.00 0.00 68 1016.2
20260903121734 79 71 1.7 2.6 0.00 0.00 0.00 69 1016.1
20260903121230 79 179 3.5 3.5 0.00 0.00 0.00 69 1016.2
20260903120730 79 54 1.7 1.7 0.00 0.00 0.00 69 1016.2
20260903120224 79 184 3.5 5.2 0.00 0.00 0.00 69 1016.1
20260903115723 79 148 1.7 2.6 0.00 0.00 0.00 68 1016.1
20260903115219 80 185 1.7 1.7 0.00 0.00 0.00 68 1016.0
20260903114713 80 94 1.7 2.6 0.00 0.00 0.00 68 1016.0
20260903114209 80 207 4.3 5.2 0.00 0.00 0.00 68 1015.9
20260903113708 80 210 1.7 2.6 0.00 0.00 0.00 67 1016.0
20260903113205 80 188 2.6 2.6 0.00 0.00 0.00 67 1016.1
20260903112701 80 92 2.6 3.5 0.00 0.00 0.00 66 1016.2
20260903112156 80 37 1.7 2.6 0.00 0.00 0.00 66 1015.9
20260903111654 80 165 4.3 6.1 0.00 0.00 0.00 66 1016.0
20260903111150 80 97 1.7 1.7 0.00 0.00 0.00 66 1016.1
20260903110646 81 213 5.2 7.8 0.00 0.00 0.00 65 1016.0
20260903110142 81 160 1.7 1.7 0.00 0.00 0.00 65 1016.0
20260903105636 81 210 3.5 3.5 0.00 0.00 0.00 65 1016.0
20260903105131 80 200 4.3 6.1 0.00 0.00 0.00 65 1015.8
20260903104631 80 122 3.5 6.1 0.00 0.00 0.00 66 1015.8
20260903104126 80 172 3.5 6.1 0.00 0.00 0.00 65 1015.9
20260903103622 80 110 1.7 1.7 0.00 0.00 0.00 65 1015.9
20260903103118 81 195 2.6 3.5 0.00 0.00 0.00 65 1015.8
20260903102613 81 205 3.5 6.1 0.00 0.00 0.00 65 1015.9
20260903102113 81 47 2.6 2.6 0.00 0.00 0.00 65 1015.9
20260903101613 81 134 2.6 3.5 0.00 0.00 0.00 65 1015.7
20260903101108 81 133 1.7 2.6 0.00 0.00 0.00 65 1015.8
20260903100609 81 144 5.2 7.0 0.00 0.00 0.00 64 1015.8
20260903100108 81 174 2.6 2.6 0.00 0.00 0.00 64 1015.6
20260903095605 81 154 2.6 3.5 0.00 0.00 0.00 64 1015.7
20260903095105 81 39 1.7 3.5 0.00 0.00 0.00 64 1015.7
20260903094606 81 231 2.6 2.6 0.00 0.00 0.00 64 1015.7
20260903094101 81 197 5.2 7.0 0.00 0.00 0.00 63 1015.6
20260903093556 81 100 2.6 2.6 0.00 0.00 0.00 63 1015.7
20260903093052 82 192 3.5 5.2 0.00 0.00 0.00 63 1015.6
20260903092551 82 203 3.5 3.5 0.00 0.00 0.00 63 1015.8
20260903092045 82 185 4.3 6.1 0.00 0.00 0.00 62 1015.6
20260903091544 82 30 0.9 0.9 0.00 0.00 0.00 62 1015.7
20260903091038 82 178 1.7 2.6 0.00 0.00 0.00 62 1015.7
20260903090535 82 40 1.7 1.7 0.00 0.00 0.00 61 1015.6
20260903090033 82 171 2.6 2.6 0.00 0.00 0.00 61 1015.6
20260903085532 82 197 3.5 5.2 0.00 0.00 0.00 61 1015.6
20260903085028 83 13 0.9 1.7 0.00 0.00 0.00 60 1015.5
20260903084526 83 28 0.9 0.9 0.00 0.00 0.00 60 1015.6
20260903084020 83 194 1.7 2.6 0.00 0.00 0.00 60 1015.5
20260903083511 83 230 1.7 2.6 0.00 0.00 0.00 60 1015.5
20260903083010 83 181 4.3 6.1 0.00 0.00 0.00 59 1015.6
20260903082505 83 238 1.7 2.6 0.00 0.00 0.00 59 1015.5
20260903082000 83 164 1.7 1.7 0.00 0.00 0.00 59 1015.6
20260903081455 84 202 1.7 2.6 0.00 0.00 0.00 59 1015.5
20260903080951 84 186 5.2 7.8 0.00 0.00 0.00 58 1015.5
20260903080447 84 196 5.2 6.1 0.00 0.00 0.00 58 1015.3
20260903075943 84 1 1.7 3.5 0.00 0.00 0.00 58 1015.3
20260903075438 84 72 1.7 2.6 0.00 0.00 0.00 58 1015.3
20260903074933 84 197 2.6 3.5 0.00 0.00 0.00 57 1015.4
20260903074432 84 31 1.7 1.7 0.00 0.00 0.00 57 1015.4
20260903073927 84 90 3.5 5.2 0.00 0.00 0.00 57 1015.4
20260903073422 84 187 2.6 3.5 0.00 0.00 0.00 57 1015.3
20260903072918 85 49 0.9 0.9 0.00 0.00 0.00 56 1015.3
20260903072414 85 115 3.5 3.5 0.00 0.00 0.00 56 1015.3
20260903071911 85 128 2.6 2.6 0.00 0.00 0.00 56 1015.3
20260903071406 85 191 5.2 6.1 0.00 0.00 0.00 56 1015.3
20260903070902 85 222 1.7 2.6 0.00 0.00 0.00 56 1015.3
20260903070356 85 186 1.7 1.7 0.00 0.00 0.00 56 1015.2
20260903065851 85 221 2.6 2.6 0.00 0.00 0.00 56 1015.3
20260903065345 85 153 2.6 2.6 0.00 0.00 0.00 56 1015.3
20260903064844 85 241 1.7 1.7 0.00 0.00 0.00 56 1015.2
20260903064340 85 156 4.3 6.1 0.00 0.00 0.00 56 1015.2
20260903063836 85 60 1.7 1.7 0.00 0.00 0.00 56 1015.2
20260903063331 85 151 3.5 6.1 0.00 0.00 0.00 56 1015.3
20260903062827 85 164 2.6 5.2 0.00 0.00 0.00 56 1015.2
20260903062326 85 192 2.6 3.5 0.00 0.00 0.00 56 1015.3
20260903061823 85 274 0.9 0.9 0.00 0.00 0.00 56 1015.3
20260903061321 85 139 0.9 1.7 0.00 0.00 0.00 55 1015.2
20260903060818 85 116 2.6 3.5 0.00 0.00 0.00 55 1015.2
20260903060317 86 80 2.6 2.6 0.00 0.00 0.00 55 1015.2
20260903055815 86 101 3.5 5.2 0.00 0.00 0.00 55 1015.1
20260903055313 86 179 2.6 2.6 0.00 0.00 0.00 55 1015.2
20260903054809 85 220 3.5 3.5 0.00 0.00 0.00 55 1015.2
20260903054308 85 185 2.6 3.5 0.00 0.00 0.00 55 1015.2
20260903053805 85 181 2.6 5.2 0.00 0.00 0.00 55 1015.2
20260903053300 85 79 2.6 3.5 0.00 0.00 0.00 55 1015.1
20260903052755 86 34 0.9 1.7 0.00 0.00 0.00 54 1015.2
20260903052251 86 130 3.5 3.5 0.00 0.00 0.00 54 1015.1
20260903051746 86 108 1.7 2.6 0.00 0.00 0.00 53 1015.1
20260903051242 86 157 2.6 3.5 0.00 0.00 0.00 53 1015.1
20260903050737 86 188 5.2 6.1 0.00 0.00 0.00 53 1015.0
20260903050236 86 144 1.7 2.6 0.00 0.00 0.00 53 1015.1
20260903045731 86 24 0.9 1.7 0.00 0.00 0.00 52 1015.0
20260903045227 86 175 3.5 3.5 0.00 0.00 0.00 52 1015.0
20260903044723 86 148 1.7 1.7 0.00 0.00 0.00 52 1015.0
20260903044218 87 35 1.7 2.6 0.00 0.00 0.00 51 1014.9
20260903043716 87 170 3.5 3.5 0.00 0.00 0.00 51 1015.1
20260903043215 87 54 0.9 0.9 0.00 0.00 0.00 50 1015.1
20260903042714 87 178 3.5 5.2 0.00 0.00 0.00 50 1015.0
20260903042209 87 38 2.6 3.5 0.00 0.00 0.00 49 1014.7
20260903041706 87 74 3.5 3.5 0.00 0.00 0.00 49 1014.9
20260903041201 88 188 2.6 3.5 0.00 0.00 0.00 48 1014.9
20260903040700 88 114 2.6 2.6 0.00 0.00 0.00 48 1014.9
20260903040156 88 215 2.6 2.6 0.00 0.00 0.00 48 1014.8
20260903035651 88 48 0.9 0.9 0.00 0.00 0.00 47 1015.1
20260903035142 88 346 1.7 1.7 0.00 0.00 0.00 47 1015.1
20260903034642 89 138 2.6 2.6 0.00 0.00 0.00 46 1014.9
20260903034136 89 158 0.9 0.9 0.00 0.00 0.00 45 1014.9
20260903033632 89 236 0.9 1.7 0.00 0.00 0.00 45 1014.9
20260903033132 90 174 2.6 2.6 0.00 0.00 0.00 44 1014.8
20260903032627 90 158 2.6 2.6 0.00 0.00 0.00 44 1014.8
20260903032123 90 182 1.7 2.6 0.00 0.00 0.00 44 1014.8
20260903031618 90 28 1.7 2.6 0.00 0.00 0.00 44 1014.9
20260903031113 90 117 3.5 3.5 0.00 0.00 0.00 44 1014.8
20260903030609 90 47 2.6 2.6 0.00 0.00 0.00 44 1014.8
20260903030104 90 126 1.7 2.6 0.00 0.00 0.00 44 1014.6
20260903025559 90 66 0.9 1.7 0.00 0.00 0.00 44 1014.7
20260903025055 90 147 2.6 3.5 0.00 0.00 0.00 43 1014.5
20260903024555 91 61 0.9 1.7 0.00 0.00 0.00 43 1014.5
20260903024049 91 54 1.7 1.7 0.00 0.00 0.00 43 1014.6
20260903023544 91 103 3.5 3.5 0.00 0.00 0.00 42 1014.4
20260903023040 91 98 1.7 2.6 0.00 0.00 0.00 42 1014.5
20260903022539 91 43 0.0 0.0 0.00 0.00 0.00 42 1014.6
20260903022038 91 354 0.0 0.9 0.00 0.00 0.00 42 1014.6
20260903021533 92 172 0.9 1.7 0.00 0.00 0.00 42 1014.2
20260903021027 92 157 1.7 1.7 0.00 0.00 0.00 41 1014.4
20260903020524 92 30 0.0 0.9 0.00 0.00 0.00 42 1014.4
20260903020023 92 4 0.0 0.0 0.00 0.00 0.00 41 1014.0
20260903015520 92 15 0.0 0.0 0.00 0.00 0.00 41 1013.9
20260903015015 92 24 0.9 0.9 0.00 0.00 0.00 40 1014.0
20260903014514 93 72 1.7 1.7 0.00 0.00 0.00 40 1013.8
20260903014009 93 34 0.9 0.9 0.00 0.00 0.00 40 1013.8
20260903013508 93 26 0.0 0.9 0.00 0.00 0.00 40 1013.6
20260903013008 93 55 0.9 0.9 0.00 0.00 0.00 40 1013.6
20260903012508 93 21 0.0 0.0 0.00 0.00 0.00 40 1013.6
20260903012006 93 30 0.0 0.0 0.00 0.00 0.00 39 1013.7
20260903011501 93 32 0.0 0.9 0.00 0.00 0.00 39 1013.5
20260903010957 94 23 0.0 0.0 0.00 0.00 0.00 38 1013.4
20260903010457 94 55 0.0 0.0 0.00 0.00 0.00 38 1013.4
20260903005954 94 36 1.7 1.7 0.00 0.00 0.00 38 1013.2
20260903005450 95 62 0.9 1.7 0.00 0.00 0.00 37 1013.5
20260903004946 95 328 0.9 0.9 0.00 0.00 0.00 37 1013.3
20260903004440 95 342 0.0 0.0 0.00 0.00 0.00 36 1013.4
20260903003936 96 9 0.0 0.0 0.00 0.00 0.00 36 1013.6
20260903003436 96 12 0.9 1.7 0.00 0.00 0.00 36 1013.5
20260903002932 96 321 0.9 1.7 0.00 0.00 0.00 35 1013.4
20260903002426 97 191 1.7 1.7 0.00 0.00 0.00 35 1013.3
20260903001921 97 75 1.7 1.7 0.00 0.00 0.00 35 1013.5
20260903001421 97 63 1.7 1.7 0.00 0.00 0.00 34 1013.4
20260903000920 97 214 2.6 3.5 0.00 0.00 0.00 34 1013.4
20260903000417 98 27 1.7 1.7 0.00 0.00 0.00 34 1013.3
20260902235914 98 126 3.5 5.2 0.00 0.00 0.00 33 1013.4
20260902235409 98 224 4.3 6.1 0.00 0.00 0.00 33 1013.5
20260902234909 98 192 1.7 2.6 0.00 0.00 0.00 33 1013.5
20260902234404 98 97 1.7 2.6 0.00 0.00 0.00 33 1013.5
20260902233902 98 185 2.6 3.5 0.00 0.00 0.00 33 1013.5
20260902233357 99 225 2.6 3.5 0.00 0.00 0.00 33 1013.4
20260902232855 99 159 4.3 6.1 0.00 0.00 0.00 33 1013.7
20260902232351 99 210 2.6 3.5 0.00 0.00 0.00 33 1013.7
20260902231850 99 194 3.5 5.2 0.00 0.00 0.00 33 1013.6
20260902231345 100 176 3.5 3.5 0.00 0.00 0.00 32 1013.6
20260902230841 100 271 0.9 1.7 0.00 0.00 0.00 32 1013.4
20260902230340 100 1 0.9 0.9 0.00 0.00 0.00 32 1013.7
20260902225840 99 11 1.7 1.7 0.00 0.00 0.00 33 1013.7
20260902225335 100 98 3.5 6.1 0.00 0.00 0.00 33 1013.8
20260902224833 100 191 3.5 3.5 0.00 0.00 0.00 33 1013.6
20260902224328 100 85 3.5 5.2 0.00 0.00 0.00 32 1013.6
20260902223826 101 96 6.1 7.8 0.00 0.00 0.00 31 1013.7
20260902223326 100 225 1.7 2.6 0.00 0.00 0.00 32 1013.7
20260902222825 101 182 3.5 3.5 0.00 0.00 0.00 32 1014.0
20260902222324 101 117 1.7 2.6 0.00 0.00 0.00 32 1013.9
20260902221818 100 145 4.3 6.1 0.00 0.00 0.00 31 1013.8
20260902221318 100 157 5.2 7.0 0.00 0.00 0.00 32 1014.0
20260902220814 101 88 3.5 5.2 0.00 0.00 0.00 32 1013.9
20260902220313 102 141 4.3 6.1 0.00 0.00 0.00 30 1013.9
20260902215809 102 45 1.7 2.6 0.00 0.00 0.00 30 1013.9
20260902215309 99 7 0.9 0.9 0.00 0.00 0.00 33 1013.9
20260902214805 99 77 3.5 3.5 0.00 0.00 0.00 34 1014.1